Glasgow, MT

12:03 AM MST on February 14, 2016 (GMT -0700)
Wokal-Glasgow International

Weather History for KGGW - April, 2014

Change the Weather History Date:

Tuesday, April 15, 2014

  Actual Average Record
Temperature  
Mean Temperature 45 °F 45 °F  
Max Temperature 61 °F 58 °F 83 °F (1913)
Min Temperature 28 °F 32 °F -2 °F (1896)
Degree Days  
Heating Degree Days 20 20  
Month to date heating degree days 387 342  
Since 1 July heating degree days 8189 7746  
Cooling Degree Days 0 0  
Month to date cooling degree days 0 0  
Year to date cooling degree days 0 0  
Moisture  
Dew Point 17 °F    
Average Humidity 38    
Maximum Humidity 56    
Minimum Humidity 19    
Precipitation  
Precipitation 0.00 in 0.03 in 0.75 in (1896)
Month to date precipitation T 0.34  
Year to date precipitation 1.06 1.39  
Snow  
Snow 0.00 in 0.00 in 7.50 in (1896)
Month to date snowfall 0.0 1.2  
Since 1 July snowfall 30.4 32.9  
Snow Depth 0.00 in    
Sea Level Pressure  
Sea Level Pressure 29.69 in    
Wind  
Wind Speed 12 mph (East)    
Max Wind Speed 25 mph    
Max Gust Speed 31 mph    
Visibility 10 miles    
Events      
T = Trace of Precipitation, MM = Missing Value Source: NWS Daily Summary

Daily Weather History Graph

Daily Weather History Graph

Search for Another Location

Airport or City:

Trip Planner

Search our weather history database for the weather conditions in past years. The results will help you decide how hot, cold, wet, or windy it might be!

Date:

Astronomy

Apr. 15, 2014 Rise Set
Actual Time 6:16 AM MDT 7:57 PM MDT
Civil Twilight 5:43 AM MDT 8:30 PM MDT
Nautical Twilight 5:03 AM MDT 9:10 PM MDT
Astronomical Twilight 4:20 AM MDT 9:54 PM MDT
Moon 8:44 PM MDT (4/15) 6:25 AM MDT (4/15)
Length of Visible Light 14h 46m
Length of Day
13h 40m
Full, 100% of the Moon is Illuminated
Apr 15
Full
Apr 22
Last Quarter
Apr 29
New
May 6
First Quarter
May 14
Full

Hourly Weather History & Observations

Time (MDT) Temp. Windchill Dew Point Humidity Pressure Visibility Wind Dir Wind Speed Gust Speed Precip Events Conditions
12:53 AM 28.0 °F 15.3 °F 9.0 °F 45% 29.93 in 10.0 mi ESE 18.4 mph - N/A   Scattered Clouds
1:53 AM 28.0 °F 14.9 °F 10.0 °F 47% 29.88 in 10.0 mi ESE 19.6 mph - N/A   Overcast
2:53 AM 28.9 °F 16.5 °F 10.0 °F 45% 29.83 in 10.0 mi ESE 18.4 mph - N/A   Scattered Clouds
3:53 AM 28.9 °F 16.9 °F 10.9 °F 47% 29.80 in 10.0 mi ESE 17.3 mph - N/A   Clear
4:53 AM 30.0 °F 18.3 °F 10.9 °F 45% 29.77 in 10.0 mi ESE 17.3 mph - N/A   Overcast
5:53 AM 28.9 °F 18.2 °F 12.0 °F 49% 29.74 in 10.0 mi ESE 13.8 mph - N/A   Clear
6:53 AM 28.0 °F 17.5 °F 12.0 °F 51% 29.73 in 10.0 mi East 12.7 mph - N/A   Clear
7:53 AM 30.9 °F 20.2 °F 14.0 °F 50% 29.71 in 10.0 mi ESE 15.0 mph - N/A   Clear
8:53 AM 35.1 °F 26.9 °F 16.0 °F 46% 29.70 in 10.0 mi SE 11.5 mph - N/A   Partly Cloudy
9:53 AM 39.0 °F 34.8 °F 18.0 °F 43% 29.68 in 10.0 mi SSE 5.8 mph - N/A   Clear
10:53 AM 43.0 °F 39.5 °F 19.0 °F 38% 29.66 in 10.0 mi South 5.8 mph - N/A   Clear
11:53 AM 48.0 °F - 19.9 °F 33% 29.64 in 10.0 mi West 4.6 mph - N/A   Clear
12:53 PM 51.1 °F - 21.0 °F 31% 29.62 in 10.0 mi West 6.9 mph - N/A   Scattered Clouds
1:53 PM 57.0 °F - 19.9 °F 24% 29.57 in 10.0 mi Variable 4.6 mph - N/A   Clear
2:53 PM 60.8 °F - 19.4 °F 20% 29.51 in 10.0 mi NW 8.1 mph - N/A   Clear
3:53 PM 59.0 °F - 18.0 °F 20% 29.54 in 10.0 mi NE 4.6 mph - N/A   Mostly Cloudy
4:53 PM 59.0 °F - 19.9 °F 22% 29.54 in 10.0 mi WNW 25.3 mph - N/A   Overcast
5:53 PM 57.0 °F - 19.9 °F 24% 29.56 in 10.0 mi North 10.4 mph 19.6 mph N/A   Overcast
6:53 PM 50.0 °F - 19.4 °F 30% 29.56 in 10.0 mi ENE 19.6 mph 26.5 mph N/A   Mostly Cloudy
7:53 PM 46.0 °F 41.0 °F 21.0 °F 37% 29.65 in 10.0 mi ENE 10.4 mph - N/A   Mostly Cloudy
8:53 PM 42.1 °F 38.4 °F 21.0 °F 43% 29.69 in 10.0 mi East 5.8 mph - N/A   Partly Cloudy
9:53 PM 39.0 °F 31.8 °F 21.0 °F 49% 29.73 in 10.0 mi NNE 11.5 mph - N/A   Clear
10:53 PM 37.0 °F 30.4 °F 21.0 °F 52% 29.77 in 10.0 mi NNE 9.2 mph - N/A   Clear
11:53 PM 35.1 °F 25.9 °F 21.0 °F 57% 29.79 in 10.0 mi NE 13.8 mph - N/A   Clear